QPF
0.00 0.00 0.00 0.00 0.00 0.00 0.01 0.01 0.01 0.01 0.01 0.01 0.01 0.01 0.01 0.01 0.01 0.01 0.01 0.02 0.02 0.02 0.03 0.04 0.04 0.03 0.04 0.06 0.08 0.14 0.17 0.18 0.19 0.18 0.19 0.17 0.15 0.13 0.12 0.12 0.12 0.13 0.13 0.14
0.01 0.00 0.00 0.00 0.00 0.00 0.00 0.00 0.00 0.00 0.00 0.01 0.01 0.01 0.01 0.01 0.01 0.02 0.02 0.02 0.02 0.01 0.02 0.03 0.04 0.03 0.04 0.05 0.07 0.10 0.13 0.14 0.17 0.16 0.19 0.19 0.15 0.12 0.10 0.12 0.13 0.12 0.12 0.12
0.02 0.00 0.01 0.01 0.00 0.00 0.00 0.00 0.00 0.00 0.00 0.00 0.01 0.01 0.01 0.01 0.01 0.02 0.02 0.02 0.02 0.01 0.01 0.02 0.03 0.04 0.04 0.04 0.05 0.07 0.08 0.10 0.14 0.15 0.15 0.16 0.14 0.11 0.09 0.09 0.11 0.12 0.11 0.10
0.03 0.02 0.02 0.00 0.00 0.00 0.00 0.00 0.00 0.00 0.00 0.00 0.00 0.00 0.00 0.01 0.01 0.02 0.02 0.02 0.02 0.02 0.02 0.01 0.02 0.03 0.04 0.04 0.04 0.05 0.06 0.07 0.11 0.13 0.13 0.15 0.13 0.11 0.09 0.09 0.10 0.09 0.09 0.09
0.05 0.03 0.01 0.00 0.00 0.00 0.00 0.00 0.00 0.00 0.00 0.00 0.00 0.00 0.00 0.00 0.00 0.01 0.01 0.01 0.02 0.02 0.02 0.01 0.01 0.02 0.03 0.04 0.04 0.03 0.06 0.05 0.07 0.11 0.12 0.13 0.13 0.09 0.08 0.08 0.09 0.09 0.08 0.08
0.05 0.03 0.01 0.00 0.00 0.00 0.00 0.00 0.00 0.00 0.00 0.00 0.01 0.01 0.00 0.00 0.00 0.01 0.01 0.01 0.01 0.01 0.01 0.01 0.01 0.01 0.02 0.03 0.03 0.02 0.04 0.05 0.04 0.08 0.10 0.09 0.10 0.08 0.07 0.06 0.06 0.08 0.08 0.07
0.04 0.04 0.01 0.00 0.00 0.00 0.00 0.00 0.00 0.00 0.00 0.01 0.01 0.01 0.01 0.00 0.01 0.01 0.01 0.01 0.01 0.00 0.01 0.01 0.01 0.01 0.01 0.02 0.03 0.02 0.03 0.04 0.04 0.05 0.08 0.08 0.08 0.07 0.07 0.06 0.05 0.05 0.05 0.06
0.03 0.04 0.02 0.00 0.00 0.00 0.00 0.00 0.00 0.00 0.00 0.01 0.01 0.00 0.00 0.01 0.01 0.01 0.01 0.01 0.01 0.01 0.01 0.01 0.01 0.01 0.01 0.01 0.03 0.02 0.02 0.03 0.04 0.04 0.06 0.07 0.08 0.08 0.07 0.07 0.06 0.05 0.05 0.05
0.01 0.01 0.00 0.00 0.00 0.00 0.00 0.00 0.00 0.01 0.01 0.01 0.01 0.00 0.01 0.01 0.01 0.01 0.01 0.01 0.01 0.01 0.01 0.00 0.01 0.01 0.01 0.01 0.02 0.02 0.02 0.03 0.04 0.03 0.05 0.06 0.07 0.08 0.08 0.08 0.08 0.06 0.05 0.04
0.00 0.00 0.00 0.00 0.00 0.00 0.00 0.01 0.01 0.01 0.01 0.01 0.01 0.00 0.01 0.01 0.02 0.03 0.02 0.01 0.01 0.01 0.01 0.01 0.01 0.01 0.01 0.01 0.01 0.02 0.03 0.04 0.04 0.04 0.04 0.05 0.07 0.07 0.07 0.07 0.07 0.06 0.04 0.04
0.00 0.00 0.00 0.00 0.00 0.00 0.00 0.00 0.01 0.01 0.01 0.01 0.01 0.01 0.01 0.01 0.02 0.02 0.02 0.01 0.01 0.01 0.01 0.01 0.01 0.01 0.01 0.01 0.01 0.02 0.03 0.04 0.04 0.04 0.04 0.04 0.06 0.07 0.07 0.06 0.06 0.06 0.05 0.03
0.00 0.00 0.00 0.00 0.00 0.00 0.00 0.01 0.01 0.01 0.01 0.01 0.01 0.01 0.01 0.02 0.01 0.01 0.02 0.01 0.01 0.01 0.01 0.01 0.01 0.01 0.01 0.01 0.02 0.02 0.03 0.05 0.05 0.04 0.04 0.04 0.05 0.06 0.07 0.07 0.07 0.07 0.07 0.06
0.00 0.00 0.00 0.00 0.00 0.00 0.00 0.00 0.01 0.01 0.02 0.01 0.01 0.01 0.01 0.02 0.01 0.01 0.01 0.01 0.01 0.01 0.02 0.02 0.01 0.01 0.01 0.01 0.02 0.03 0.04 0.05 0.05 0.04 0.05 0.05 0.05 0.05 0.04 0.06 0.07 0.07 0.07 0.07
0.00 0.00 0.00 0.00 0.00 0.00 0.00 0.00 0.01 0.01 0.02 0.02 0.01 0.01 0.01 0.01 0.01 0.01 0.01 0.00 0.00 0.01 0.01 0.02 0.02 0.02 0.02 0.02 0.02 0.03 0.05 0.06 0.05 0.05 0.05 0.06 0.06 0.05 0.04 0.04 0.04 0.06 0.08 0.09
0.00 0.00 0.00 0.00 0.00 0.00 0.00 0.00 0.01 0.01 0.01 0.02 0.02 0.01 0.01 0.02 0.02 0.01 0.01 0.01 0.01 0.00 0.01 0.01 0.02 0.02 0.02 0.02 0.03 0.04 0.06 0.07 0.07 0.06 0.06 0.06 0.06 0.06 0.05 0.05 0.05 0.05 0.07 0.10
0.00 0.00 0.00 0.00 0.00 0.00 0.00 0.00 0.01 0.01 0.01 0.02 0.02 0.02 0.02 0.03 0.02 0.01 0.01 0.01 0.01 0.01 0.00 0.01 0.01 0.02 0.02 0.03 0.04 0.04 0.06 0.08 0.08 0.06 0.06 0.07 0.07 0.06 0.07 0.07 0.07 0.07 0.07 0.07
0.00 0.00 0.00 0.00 0.00 0.00 0.00 0.01 0.01 0.01 0.01 0.01 0.02 0.02 0.03 0.03 0.03 0.02 0.01 0.01 0.01 0.00 0.00 0.01 0.01 0.01 0.02 0.02 0.04 0.04 0.06 0.08 0.08 0.07 0.07 0.07 0.07 0.07 0.08 0.08 0.08 0.08 0.09 0.09
0.00 0.00 0.00 0.00 0.00 0.00 0.01 0.01 0.01 0.01 0.01 0.01 0.01 0.02 0.02 0.02 0.02 0.02 0.02 0.01 0.01 0.00 0.01 0.01 0.01 0.01 0.02 0.03 0.04 0.05 0.07 0.08 0.08 0.07 0.08 0.08 0.08 0.07 0.08 0.08 0.08 0.08 0.08 0.09
0.00 0.00 0.00 0.00 0.00 0.01 0.01 0.01 0.01 0.01 0.01 0.01 0.01 0.01 0.02 0.02 0.02 0.02 0.01 0.01 0.01 0.01 0.01 0.01 0.01 0.02 0.03 0.03 0.05 0.07 0.08 0.08 0.08 0.09 0.09 0.10 0.10 0.09 0.09 0.08 0.08 0.08 0.08 0.07
0.00 0.00 0.00 0.00 0.00 0.01 0.01 0.01 0.01 0.01 0.01 0.01 0.01 0.01 0.01 0.02 0.02 0.02 0.01 0.01 0.01 0.01 0.02 0.02 0.02 0.02 0.03 0.04 0.06 0.09 0.10 0.11 0.10 0.10 0.10 0.10 0.10 0.11 0.10 0.09 0.08 0.08 0.08 0.08
0.00 0.00 0.00 0.00 0.00 0.01 0.01 0.01 0.01 0.01 0.01 0.01 0.01 0.01 0.02 0.02 0.02 0.01 0.01 0.01 0.01 0.02 0.02 0.02 0.02 0.03 0.04 0.06 0.09 0.11 0.12 0.12 0.12 0.11 0.10 0.09 0.09 0.10 0.10 0.09 0.08 0.08 0.08 0.08
0.00 0.00 0.00 0.00 0.01 0.01 0.01 0.01 0.01 0.01 0.01 0.01 0.01 0.01 0.01 0.01 0.01 0.01 0.01 0.02 0.02 0.03 0.03 0.03 0.03 0.04 0.05 0.08 0.11 0.12 0.13 0.13 0.13 0.10 0.08 0.07 0.08 0.10 0.09 0.09 0.09 0.08 0.08 0.07
0.00 0.00 0.00 0.00 0.01 0.01 0.01 0.01 0.01 0.01 0.01 0.01 0.01 0.01 0.01 0.01 0.01 0.01 0.02 0.02 0.02 0.03 0.03 0.03 0.04 0.04 0.06 0.09 0.11 0.13 0.14 0.15 0.13 0.09 0.07 0.07 0.08 0.10 0.09 0.08 0.07 0.08 0.08 0.08
0.00 0.00 0.00 0.00 0.01 0.01 0.01 0.01 0.02 0.02 0.02 0.02 0.01 0.01 0.01 0.01 0.01 0.02 0.02 0.02 0.02 0.02 0.03 0.03 0.04 0.04 0.06 0.08 0.11 0.12 0.14 0.14 0.11 0.08 0.07 0.07 0.07 0.09 0.09 0.08 0.07 0.07 0.07 0.07
0.00 0.00 0.00 0.01 0.01 0.01 0.01 0.01 0.01 0.01 0.01 0.01 0.01 0.01 0.01 0.01 0.02 0.02 0.02 0.02 0.02 0.02 0.03 0.03 0.03 0.04 0.06 0.08 0.10 0.11 0.12 0.12 0.11 0.08 0.08 0.07 0.08 0.09 0.09 0.08 0.07 0.06 0.06 0.05
0.00 0.01 0.01 0.01 0.01 0.01 0.01 0.01 0.01 0.01 0.01 0.01 0.01 0.02 0.02 0.02 0.02 0.03 0.03 0.02 0.02 0.02 0.03 0.03 0.03 0.04 0.06 0.07 0.08 0.10 0.10 0.11 0.11 0.09 0.08 0.08 0.08 0.09 0.09 0.08 0.07 0.06 0.05 0.04
0.00 0.01 0.01 0.01 0.01 0.01 0.01 0.01 0.01 0.02 0.02 0.02 0.02 0.02 0.02 0.03 0.03 0.03 0.03 0.02 0.02 0.02 0.03 0.03 0.03 0.04 0.06 0.07 0.08 0.09 0.10 0.11 0.10 0.10 0.09 0.09 0.09 0.09 0.09 0.07 0.06 0.05 0.05 0.05
MSLP
1021.70 1021.35 1020.96 1020.53 1020.06 1019.54 1018.97 1018.35 1017.65 1016.89 1016.08 1015.21 1014.32 1013.42 1012.53 1011.66 1010.84 1010.06 1009.32 1008.61 1007.93 1007.24 1006.51 1005.73 1004.87 1003.91 1002.86 1001.71 1000.51 999.31 998.16 997.13 996.29 995.71 995.44 995.49 995.85 996.51 997.39 998.44 999.58 1000.74 1001.87 1002.92
1021.23 1020.79 1020.25 1019.64 1018.99 1018.32 1017.66 1017.01 1016.38 1015.76 1015.16 1014.55 1013.93 1013.28 1012.61 1011.90 1011.17 1010.43 1009.68 1008.94 1008.21 1007.48 1006.74 1005.97 1005.16 1004.27 1003.31 1002.26 1001.14 1000.00 998.89 997.86 996.99 996.35 995.98 995.93 996.19 996.73 997.52 998.48 999.55 1000.66 1001.75 1002.78
1020.64 1020.11 1019.43 1018.66 1017.85 1017.05 1016.31 1015.66 1015.10 1014.65 1014.26 1013.92 1013.58 1013.20 1012.75 1012.22 1011.60 1010.91 1010.16 1009.38 1008.60 1007.83 1007.07 1006.31 1005.54 1004.73 1003.86 1002.91 1001.90 1000.83 999.77 998.75 997.86 997.16 996.71 996.55 996.69 997.12 997.79 998.66 999.65 1000.71 1001.76 1002.76
1019.93 1019.32 1018.54 1017.65 1016.72 1015.83 1015.05 1014.41 1013.95 1013.65 1013.47 1013.37 1013.28 1013.15 1012.91 1012.55 1012.04 1011.40 1010.67 1009.87 1009.05 1008.24 1007.46 1006.71 1005.98 1005.24 1004.46 1003.61 1002.69 1001.71 1000.69 999.70 998.79 998.04 997.51 997.24 997.27 997.58 998.14 998.91 999.83 1000.82 1001.83 1002.80
1019.08 1018.41 1017.57 1016.61 1015.63 1014.71 1013.93 1013.34 1012.97 1012.80 1012.81 1012.91 1013.04 1013.11 1013.04 1012.81 1012.40 1011.81 1011.09 1010.28 1009.44 1008.61 1007.83 1007.09 1006.40 1005.72 1005.02 1004.26 1003.42 1002.51 1001.55 1000.57 999.65 998.85 998.25 997.89 997.81 998.01 998.47 999.15 999.99 1000.93 1001.90 1002.86
1018.03 1017.35 1016.50 1015.54 1014.57 1013.67 1012.94 1012.42 1012.15 1012.11 1012.26 1012.51 1012.79 1013.00 1013.07 1012.94 1012.59 1012.05 1011.35 1010.55 1009.71 1008.88 1008.10 1007.39 1006.74 1006.11 1005.48 1004.79 1004.02 1003.16 1002.23 1001.27 1000.33 999.49 998.82 998.38 998.21 998.32 998.69 999.29 1000.07 1000.97 1001.92 1002.87
1016.77 1016.11 1015.31 1014.41 1013.51 1012.69 1012.05 1011.63 1011.46 1011.52 1011.77 1012.12 1012.50 1012.79 1012.93 1012.86 1012.57 1012.06 1011.40 1010.62 1009.80 1009.00 1008.25 1007.58 1006.97 1006.39 1005.80 1005.16 1004.43 1003.61 1002.70 1001.74 1000.78 999.90 999.18 998.67 998.43 998.46 998.76 999.30 1000.04 1000.90 1001.84 1002.80
1015.27 1014.69 1013.97 1013.19 1012.42 1011.74 1011.22 1010.92 1010.85 1010.99 1011.31 1011.71 1012.12 1012.44 1012.61 1012.57 1012.31 1011.85 1011.23 1010.50 1009.73 1008.98 1008.29 1007.67 1007.10 1006.57 1006.02 1005.40 1004.70 1003.88 1002.97 1001.99 1001.02 1000.10 999.33 998.77 998.47 998.44 998.69 999.19 999.89 1000.75 1001.69 1002.68
1013.60 1013.10 1012.52 1011.90 1011.30 1010.79 1010.43 1010.25 1010.28 1010.49 1010.84 1011.26 1011.66 1011.98 1012.15 1012.12 1011.89 1011.47 1010.91 1010.25 1009.56 1008.90 1008.28 1007.72 1007.21 1006.71 1006.18 1005.58 1004.86 1004.04 1003.11 1002.11 1001.10 1000.15 999.34 998.74 998.39 998.33 998.54 999.02 999.71 1000.56 1001.52 1002.54
1011.81 1011.43 1011.01 1010.57 1010.17 1009.85 1009.66 1009.62 1009.74 1010.01 1010.37 1010.78 1011.16 1011.45 1011.60 1011.57 1011.37 1011.01 1010.53 1009.97 1009.38 1008.82 1008.29 1007.81 1007.35 1006.88 1006.36 1005.75 1005.01 1004.16 1003.19 1002.16 1001.12 1000.14 999.30 998.67 998.30 998.21 998.41 998.87 999.56 1000.43 1001.42 1002.47
1010.03 1009.77 1009.52 1009.27 1009.07 1008.95 1008.93 1009.03 1009.25 1009.56 1009.93 1010.32 1010.67 1010.92 1011.05 1011.04 1010.87 1010.58 1010.19 1009.74 1009.28 1008.83 1008.40 1007.99 1007.58 1007.13 1006.61 1005.97 1005.21 1004.30 1003.30 1002.22 1001.15 1000.15 999.29 998.66 998.28 998.19 998.39 998.86 999.56 1000.45 1001.46 1002.56
1008.37 1008.24 1008.14 1008.08 1008.07 1008.14 1008.28 1008.51 1008.81 1009.16 1009.55 1009.92 1010.24 1010.47 1010.59 1010.59 1010.47 1010.25 1009.97 1009.64 1009.30 1008.96 1008.63 1008.29 1007.92 1007.48 1006.94 1006.27 1005.45 1004.50 1003.45 1002.34 1001.25 1000.24 999.39 998.76 998.40 998.33 998.56 999.05 999.78 1000.69 1001.74 1002.87
1006.94 1006.91 1006.95 1007.05 1007.22 1007.44 1007.73 1008.07 1008.45 1008.85 1009.24 1009.60 1009.91 1010.13 1010.25 1010.28 1010.22 1010.08 1009.90 1009.68 1009.46 1009.22 1008.96 1008.68 1008.32 1007.88 1007.31 1006.59 1005.72 1004.73 1003.63 1002.50 1001.40 1000.40 999.58 998.99 998.67 998.65 998.92 999.46 1000.22 1001.17 1002.26 1003.42
1005.80 1005.86 1006.01 1006.25 1006.55 1006.91 1007.31 1007.74 1008.18 1008.62 1009.03 1009.40 1009.70 1009.92 1010.06 1010.13 1010.12 1010.06 1009.97 1009.85 1009.71 1009.54 1009.34 1009.08 1008.72 1008.25 1007.63 1006.86 1005.94 1004.90 1003.79 1002.65 1001.57 1000.60 999.83 999.31 999.06 999.12 999.46 1000.06 1000.89 1001.89 1003.01 1004.21
1005.01 1005.13 1005.36 1005.69 1006.09 1006.54 1007.02 1007.52 1008.02 1008.49 1008.92 1009.29 1009.60 1009.84 1010.00 1010.10 1010.15 1010.16 1010.13 1010.08 1009.99 1009.87 1009.68 1009.41 1009.02 1008.51 1007.84 1007.01 1006.04 1004.97 1003.85 1002.73 1001.68 1000.78 1000.09 999.66 999.52 999.68 1000.12 1000.81 1001.72 1002.78 1003.95 1005.18
1004.57 1004.73 1005.02 1005.39 1005.85 1006.36 1006.89 1007.43 1007.96 1008.45 1008.89 1009.28 1009.60 1009.85 1010.04 1010.18 1010.27 1010.31 1010.33 1010.31 1010.24 1010.12 1009.91 1009.60 1009.17 1008.59 1007.86 1006.97 1005.97 1004.88 1003.76 1002.68 1001.70 1000.89 1000.31 1000.00 999.99 1000.27 1000.83 1001.64 1002.64 1003.78 1005.01 1006.29
1004.47 1004.66 1004.96 1005.36 1005.84 1006.36 1006.91 1007.46 1008.00 1008.50 1008.95 1009.34 1009.67 1009.94 1010.15 1010.30 1010.41 1010.48 1010.51 1010.48 1010.40 1010.25 1009.99 1009.62 1009.12 1008.47 1007.67 1006.74 1005.71 1004.62 1003.53 1002.51 1001.62 1000.92 1000.47 1000.30 1000.43 1000.86 1001.55 1002.48 1003.58 1004.81 1006.12 1007.44
1004.69 1004.89 1005.19 1005.58 1006.04 1006.55 1007.09 1007.62 1008.14 1008.63 1009.07 1009.46 1009.79 1010.06 1010.28 1010.44 1010.56 1010.62 1010.63 1010.58 1010.45 1010.24 1009.91 1009.46 1008.88 1008.15 1007.30 1006.33 1005.28 1004.21 1003.18 1002.23 1001.45 1000.88 1000.57 1000.56 1000.84 1001.41 1002.25 1003.29 1004.51 1005.83 1007.21 1008.59
1005.18 1005.38 1005.67 1006.03 1006.46 1006.93 1007.42 1007.91 1008.39 1008.85 1009.26 1009.64 1009.95 1010.22 1010.42 1010.57 1010.67 1010.71 1010.68 1010.57 1010.38 1010.09 1009.68 1009.15 1008.49 1007.70 1006.79 1005.80 1004.77 1003.74 1002.77 1001.92 1001.26 1000.82 1000.67 1000.80 1001.24 1001.95 1002.91 1004.08 1005.39 1006.80 1008.24 1009.67
1005.86 1006.07 1006.34 1006.67 1007.05 1007.45 1007.88 1008.31 1008.74 1009.14 1009.51 1009.85 1010.13 1010.37 1010.55 1010.67 1010.73 1010.73 1010.64 1010.47 1010.20 1009.83 1009.34 1008.73 1008.00 1007.16 1006.22 1005.23 1004.23 1003.26 1002.37 1001.64 1001.10 1000.81 1000.80 1001.08 1001.65 1002.49 1003.57 1004.83 1006.23 1007.70 1009.20 1010.68
1006.68 1006.89 1007.14 1007.43 1007.75 1008.08 1008.43 1008.79 1009.14 1009.47 1009.78 1010.07 1010.30 1010.50 1010.64 1010.71 1010.72 1010.66 1010.51 1010.27 1009.92 1009.47 1008.91 1008.23 1007.45 1006.58 1005.64 1004.67 1003.72 1002.83 1002.05 1001.44 1001.04 1000.89 1001.02 1001.43 1002.12 1003.07 1004.24 1005.58 1007.03 1008.56 1010.09 1011.59
1007.52 1007.75 1007.98 1008.23 1008.48 1008.74 1009.01 1009.28 1009.54 1009.80 1010.04 1010.25 1010.43 1010.56 1010.65 1010.67 1010.62 1010.49 1010.27 1009.96 1009.54 1009.02 1008.39 1007.67 1006.86 1005.98 1005.07 1004.15 1003.28 1002.49 1001.83 1001.35 1001.09 1001.08 1001.34 1001.87 1002.67 1003.70 1004.94 1006.33 1007.82 1009.37 1010.92 1012.43
1008.30 1008.54 1008.75 1008.96 1009.15 1009.33 1009.52 1009.70 1009.88 1010.05 1010.21 1010.35 1010.46 1010.53 1010.55 1010.50 1010.39 1010.19 1009.91 1009.53 1009.05 1008.47 1007.80 1007.05 1006.24 1005.38 1004.52 1003.67 1002.90 1002.23 1001.70 1001.37 1001.25 1001.37 1001.76 1002.41 1003.29 1004.40 1005.68 1007.10 1008.61 1010.16 1011.70 1013.20
1008.92 1009.16 1009.35 1009.52 1009.65 1009.77 1009.87 1009.97 1010.06 1010.15 1010.23 1010.30 1010.34 1010.34 1010.30 1010.19 1010.01 1009.75 1009.41 1008.97 1008.44 1007.82 1007.13 1006.38 1005.58 1004.77 1003.98 1003.23 1002.57 1002.03 1001.66 1001.47 1001.50 1001.76 1002.27 1003.02 1003.98 1005.14 1006.46 1007.89 1009.40 1010.93 1012.46 1013.94
1009.31 1009.53 1009.70 1009.82 1009.90 1009.96 1009.99 1010.02 1010.04 1010.06 1010.07 1010.07 1010.04 1009.98 1009.87 1009.71 1009.47 1009.16 1008.76 1008.28 1007.72 1007.09 1006.39 1005.66 1004.91 1004.16 1003.46 1002.83 1002.30 1001.91 1001.68 1001.65 1001.83 1002.23 1002.85 1003.69 1004.72 1005.93 1007.26 1008.70 1010.19 1011.71 1013.20 1014.65
1009.40 1009.60 1009.74 1009.81 1009.85 1009.85 1009.83 1009.80 1009.76 1009.72 1009.68 1009.62 1009.55 1009.44 1009.28 1009.07 1008.79 1008.44 1008.01 1007.50 1006.93 1006.30 1005.62 1004.93 1004.24 1003.58 1002.99 1002.48 1002.09 1001.86 1001.79 1001.91 1002.23 1002.76 1003.49 1004.41 1005.51 1006.74 1008.10 1009.53 1011.00 1012.48 1013.94 1015.36
1009.20 1009.35 1009.45 1009.48 1009.47 1009.43 1009.37 1009.30 1009.23 1009.15 1009.07 1008.98 1008.88 1008.74 1008.55 1008.31 1008.01 1007.64 1007.20 1006.69 1006.13 1005.52 1004.89 1004.26 1003.65 1003.10 1002.62 1002.24 1002.00 1001.92 1002.00 1002.27 1002.72 1003.37 1004.19 1005.19 1006.33 1007.59 1008.95 1010.37 1011.81 1013.26 1014.69 1016.06
Thickness
5414 5420 5416 5410 5409 5404 5393 5389 5385 5401 5409 5420 5418 5416 5415 5416 5419 5422 5424 5428 5431 5434 5439 5446 5455 5464 5475 5488 5501 5513 5526 5537 5547 5558 5568 5577 5586 5595 5604 5612 5617 5619 5622 5623
5408 5419 5417 5416 5418 5413 5406 5403 5400 5401 5409 5420 5417 5413 5411 5410 5413 5414 5417 5421 5424 5429 5433 5439 5446 5455 5465 5477 5491 5504 5516 5527 5538 5549 5559 5569 5578 5587 5595 5603 5610 5614 5616 5618
5399 5413 5408 5408 5422 5417 5411 5411 5404 5398 5407 5412 5409 5409 5405 5405 5406 5406 5409 5414 5417 5421 5426 5431 5438 5447 5457 5469 5483 5495 5506 5519 5529 5540 5550 5560 5571 5579 5588 5596 5602 5608 5611 5613
5386 5389 5378 5415 5431 5424 5413 5410 5407 5405 5406 5405 5404 5404 5403 5403 5400 5399 5402 5407 5410 5414 5420 5425 5432 5441 5451 5462 5474 5485 5497 5509 5520 5530 5540 5550 5561 5571 5581 5588 5594 5601 5605 5607
5375 5373 5389 5416 5424 5415 5401 5398 5405 5400 5400 5399 5399 5396 5398 5400 5397 5395 5396 5399 5403 5407 5413 5419 5426 5435 5444 5454 5465 5477 5488 5498 5510 5522 5531 5542 5553 5563 5572 5580 5586 5592 5597 5600
5368 5365 5376 5408 5417 5411 5397 5382 5400 5397 5393 5391 5388 5376 5384 5392 5391 5391 5392 5393 5397 5401 5407 5413 5420 5428 5437 5447 5457 5468 5478 5489 5501 5513 5523 5533 5544 5554 5564 5572 5578 5584 5589 5593
5362 5360 5380 5407 5407 5397 5372 5376 5395 5394 5389 5384 5377 5374 5380 5384 5384 5384 5386 5388 5391 5395 5400 5406 5413 5421 5430 5439 5449 5459 5470 5481 5494 5504 5515 5525 5536 5547 5556 5564 5570 5577 5582 5586
5363 5359 5374 5404 5393 5381 5379 5388 5388 5385 5382 5378 5376 5376 5376 5376 5376 5377 5378 5381 5385 5388 5393 5399 5407 5413 5422 5431 5441 5452 5463 5474 5486 5497 5508 5519 5529 5539 5548 5555 5562 5569 5574 5577
5376 5384 5397 5398 5390 5388 5385 5380 5378 5374 5373 5371 5369 5368 5368 5368 5368 5369 5371 5374 5378 5381 5386 5392 5399 5406 5413 5423 5434 5445 5456 5466 5478 5489 5500 5511 5521 5531 5540 5547 5555 5561 5566 5569
5378 5387 5391 5389 5387 5384 5379 5374 5372 5369 5366 5364 5361 5361 5360 5360 5360 5361 5364 5367 5371 5374 5379 5384 5391 5399 5407 5416 5426 5437 5447 5458 5469 5481 5492 5502 5512 5522 5531 5539 5547 5553 5559 5562
5372 5379 5379 5380 5378 5376 5373 5370 5366 5362 5359 5357 5355 5354 5353 5352 5353 5354 5357 5359 5363 5366 5371 5377 5383 5392 5401 5409 5419 5429 5440 5450 5461 5473 5483 5493 5502 5512 5521 5530 5538 5545 5551 5556
5372 5377 5370 5372 5373 5370 5365 5361 5357 5353 5351 5350 5348 5346 5346 5346 5346 5348 5350 5352 5355 5359 5363 5369 5376 5384 5393 5403 5412 5421 5432 5442 5453 5464 5474 5483 5492 5502 5512 5521 5529 5536 5543 5548
5377 5375 5371 5369 5366 5362 5357 5353 5350 5346 5344 5341 5341 5339 5339 5339 5340 5341 5343 5346 5348 5352 5356 5362 5369 5377 5386 5395 5404 5414 5423 5433 5445 5456 5465 5474 5483 5492 5501 5510 5518 5525 5532 5538
5372 5367 5362 5360 5355 5353 5349 5345 5342 5339 5337 5334 5332 5332 5331 5331 5332 5333 5336 5339 5342 5346 5351 5356 5363 5370 5379 5388 5397 5407 5416 5426 5437 5447 5456 5465 5474 5482 5491 5499 5505 5512 5519 5526
5363 5359 5355 5352 5348 5345 5341 5336 5332 5330 5328 5326 5324 5323 5322 5322 5323 5326 5329 5332 5335 5339 5344 5350 5356 5363 5371 5380 5390 5400 5410 5419 5429 5438 5446 5456 5464 5473 5481 5488 5495 5501 5507 5512
5354 5351 5347 5343 5339 5335 5331 5327 5322 5320 5318 5316 5314 5313 5313 5314 5315 5318 5321 5324 5327 5332 5337 5342 5348 5355 5363 5372 5383 5392 5402 5412 5420 5430 5438 5446 5455 5463 5470 5478 5485 5491 5497 5501
5342 5338 5335 5331 5328 5324 5320 5317 5314 5311 5309 5307 5305 5305 5305 5306 5308 5310 5313 5316 5320 5325 5330 5335 5342 5349 5357 5366 5375 5384 5393 5402 5412 5421 5429 5438 5446 5454 5461 5468 5474 5480 5486 5491
5335 5332 5327 5323 5318 5315 5311 5309 5305 5303 5300 5298 5297 5297 5297 5297 5299 5302 5305 5309 5313 5319 5324 5329 5336 5343 5351 5359 5367 5376 5384 5394 5403 5412 5421 5430 5438 5445 5452 5459 5464 5470 5474 5479
5323 5320 5317 5313 5309 5305 5301 5299 5296 5293 5291 5290 5289 5288 5288 5289 5291 5294 5298 5302 5306 5311 5318 5323 5331 5338 5345 5353 5361 5368 5376 5385 5394 5404 5413 5422 5430 5436 5443 5449 5455 5460 5464 5469
5311 5308 5304 5300 5298 5295 5292 5290 5287 5285 5283 5282 5281 5281 5281 5283 5285 5288 5292 5295 5300 5305 5312 5318 5325 5332 5340 5347 5355 5362 5370 5378 5387 5396 5406 5414 5421 5428 5435 5441 5446 5450 5454 5459
5298 5295 5292 5289 5286 5284 5282 5280 5278 5276 5275 5274 5273 5273 5274 5276 5278 5282 5286 5291 5297 5302 5308 5314 5320 5326 5334 5341 5350 5357 5364 5371 5379 5388 5398 5405 5412 5419 5426 5432 5436 5440 5445 5449
5288 5285 5282 5279 5276 5274 5272 5270 5269 5268 5268 5267 5267 5267 5268 5271 5274 5278 5282 5286 5293 5299 5304 5308 5314 5321 5329 5337 5344 5351 5358 5366 5374 5381 5389 5396 5403 5409 5415 5421 5426 5431 5436 5440
5278 5276 5274 5271 5268 5265 5264 5262 5262 5262 5261 5261 5262 5263 5264 5267 5270 5273 5279 5284 5288 5295 5300 5304 5310 5318 5325 5331 5338 5345 5353 5361 5368 5375 5382 5388 5394 5400 5406 5411 5416 5421 5425 5429
5269 5266 5264 5262 5260 5258 5256 5257 5256 5257 5257 5257 5258 5259 5261 5263 5267 5271 5275 5281 5286 5291 5295 5301 5307 5314 5321 5325 5332 5339 5347 5354 5361 5368 5374 5380 5386 5392 5397 5402 5407 5411 5416 5420
5260 5258 5256 5254 5253 5252 5252 5252 5252 5252 5253 5254 5255 5257 5259 5261 5264 5268 5272 5276 5281 5286 5291 5296 5303 5310 5315 5320 5326 5334 5341 5348 5354 5361 5367 5373 5379 5384 5389 5394 5399 5403 5407 5410
5253 5251 5250 5249 5248 5248 5248 5248 5248 5249 5250 5252 5253 5255 5257 5259 5262 5265 5268 5272 5276 5282 5286 5291 5297 5304 5309 5315 5321 5328 5335 5342 5348 5354 5360 5366 5371 5377 5382 5386 5390 5395 5399 5402
5247 5246 5245 5244 5244 5244 5243 5244 5244 5245 5246 5248 5249 5252 5253 5256 5258 5261 5265 5268 5272 5277 5282 5288 5293 5299 5305 5311 5317 5324 5330 5336 5343 5348 5354 5359 5364 5369 5373 5378 5382 5386 5391 5395